sat.trackr.live / text

‹ back to catalog

STARLINK-31278

NORAD 59163 · 2024-044M

PAYLOAD ACTIVE UNKNOWN

§ Identity

Operator
Country
US
Launch date
2024-03-04
Launch site
AFETR
Launch vehicle
Mass (kg)
RCS (m²)

Purposes: comms

External: N2YO · Heavens-Above · Gunter

§ Orbital elements

Epoch: 2026-05-25T02:21:37.077984Z

Period
94.27 min
Inclination
43.0043°
Eccentricity
0.0001245
Mean motion
15.27553425 rev/d
Perigee alt
482.3 km
Apogee alt
484.0 km
Semi-major
6,861.3 km
B*
3.1541e-4
RAAN
35.3088°
Arg perigee
234.7447°
Mean anomaly
125.3288°
Rev number
12,525

§ Raw data

STARLINK-312781 59163U 24044M   26145.09834581  .00008420  00000+0  31541-3 0  99942 59163  43.0043  35.3088 0001245 234.7447 125.3288 15.27553425125253

JSON: /api/v1/satellites/59163 · /tle

For live sub-satellite position, see the globe view (requires WebGL).

§ Visibility from observer

Set your observer location to see the next 7 days of passes ≥ 10°. The values pass through the URL so the page stays shareable.

No JS? Fill the form by hand. The geolocation button needs JavaScript.